Date String (YYYY-MM-DD hh:mm:ss) UTC,Instrument flags,absolute air pressure of the measurement (hPa),sample flow rate (lpm),inlet stack bypass flow (lpm),air temperature of the measurement (°C),ambient temperature measured by the external sensor (°C),aerosol sample conditioner tube jacket temperature (°C),OPC LED temperature (°C),internal box temperature (°C),relative humidity of the measurement (%),span deviation,mass concentration of particles derived from Lorenz-Mie calculation of OPC scattering (μg/m³),mass concentration of particles derived from Lorenz-Mie calculation of OPC scattering (μg/m³),mass concentration of particles derived from Lorenz-Mie calculation of OPC scattering (μg/m³)
DateTimeUTC,F1_M11,P_M11,Q1_M11,Q2_M11,T1_M11,T2_M11,T3_M11,T4_M11,T5_M11,U1_M11,ZSPAN_M11,X2_M11,X0_M11,X1_M11
2023-08-23 14:00:00,SystemResetWarning,0836.0,5.00,000.00,028.2,026.1,000.0,036.7,029.8,24.7,0001.5,0007.41,0012.27,0006.61
2023-08-23 14:01:00,SystemResetWarning,0836.0,5.00,000.00,028.2,026.3,000.0,036.7,029.8,24.4,0001.7,0007.41,0012.57,0006.60
2023-08-23 14:02:00,SystemResetWarning,0836.1,5.00,000.00,028.2,026.6,000.0,036.7,029.9,24.3,0001.9,0007.39,0012.52,0006.58
2023-08-23 14:03:00,SystemResetWarning,0836.1,5.00,000.00,028.3,026.7,000.0,036.7,030.0,24.4,0001.6,0007.39,0012.57,0006.58
2023-08-23 14:04:00,SystemResetWarning,0836.1,5.00,000.00,028.3,026.9,000.0,036.7,030.0,24.3,0001.5,0007.36,0012.39,0006.58
2023-08-23 14:05:00,SystemResetWarning,0836.1,5.00,000.00,028.3,027.0,000.0,036.7,030.0,24.4,0001.6,0007.35,0012.28,0006.59
2023-08-23 14:06:00,SystemResetWarning,0836.1,5.00,000.00,028.4,027.2,000.0,036.7,030.1,24.5,0001.3,0007.37,0012.36,0006.58
2023-08-23 14:07:00,SystemResetWarning,0836.1,5.00,000.00,028.4,027.3,000.0,036.8,030.1,24.5,0001.3,0007.37,0012.39,0006.58
2023-08-23 14:08:00,SystemResetWarning,0836.1,4.98,000.00,028.5,027.1,000.0,036.8,030.2,24.6,0001.0,0007.37,0012.15,0006.58
2023-08-23 14:09:00,SystemResetWarning,0836.1,4.99,000.00,028.4,025.6,000.0,036.6,029.9,24.5,0000.8,0007.33,0012.12,0006.57
2023-08-23 14:10:00,SystemResetWarning,0836.1,5.01,000.00,028.3,024.4,000.0,036.5,029.6,25.0,0000.5,0007.34,0012.17,0006.57
2023-08-23 14:11:00,SystemResetWarning,0836.1,5.01,000.00,028.2,024.6,000.0,036.5,029.5,25.2,0000.6,0007.32,0011.42,0006.58
2023-08-23 14:12:00,SystemResetWarning,0836.1,5.00,000.00,028.2,024.9,000.0,036.6,029.5,25.5,0000.3,0007.31,0011.28,0006.58
2023-08-23 14:13:00,SystemResetWarning,0836.1,5.00,000.00,028.2,025.3,000.0,036.6,029.6,25.8,0000.3,0007.28,0011.27,0006.57
2023-08-23 14:14:00,SystemResetWarning,0836.1,5.01,000.00,028.2,025.6,000.0,036.6,029.7,24.9,0000.6,0007.26,0011.38,0006.56
2023-08-23 14:15:00,SystemResetWarning,0836.1,5.00,000.00,028.2,025.9,000.0,036.6,029.8,24.7,0000.7,0007.23,0011.28,0006.54
2023-08-23 14:16:00,SystemResetWarning,0836.1,4.99,000.00,028.2,026.2,000.0,036.6,029.8,24.1,0000.4,0007.21,0011.21,0006.53
2023-08-23 14:17:00,SystemResetWarning,0836.1,5.00,000.00,028.2,026.5,000.0,036.7,029.9,24.2,0000.8,0007.14,0011.15,0006.52
2023-08-23 14:18:00,SystemResetWarning,0836.1,5.00,000.00,028.3,026.7,000.0,036.7,029.9,24.3,0001.0,0007.14,0011.19,0006.52
2023-08-23 14:19:00,SystemResetWarning,0836.1,5.00,000.00,028.3,026.9,000.0,036.7,030.0,24.1,0001.6,0007.16,0011.27,0006.51
2023-08-23 14:20:00,SystemResetWarning,0836.1,5.01,000.00,028.4,027.0,000.0,036.7,030.1,24.0,0001.5,0007.18,0011.40,0006.50
2023-08-23 14:21:00,SystemResetWarning,0836.1,5.01,000.00,028.4,027.2,000.0,036.7,030.1,23.7,0001.7,0007.19,0011.42,0006.50
2023-08-23 14:22:00,SystemResetWarning,0836.1,5.00,000.00,028.4,027.3,000.0,036.7,030.2,23.8,0001.6,0007.20,0011.47,0006.50
2023-08-23 14:23:00,SystemResetWarning,0836.1,4.99,000.00,028.5,027.1,000.0,036.7,030.2,23.8,0002.0,0007.19,0011.47,0006.49
2023-08-23 14:24:00,SystemResetWarning,0836.1,5.00,000.00,028.4,025.6,000.0,036.6,029.9,24.3,0001.9,0007.20,0011.43,0006.48
2023-08-23 14:25:00,SystemResetWarning,0836.1,5.01,000.00,028.3,024.5,000.0,036.5,029.6,24.4,0001.8,0007.24,0011.43,0006.49
2023-08-23 14:26:00,SystemResetWarning,0836.1,5.01,000.00,028.2,024.7,000.0,036.5,029.5,25.2,0001.5,0007.30,0011.49,0006.51
2023-08-23 14:27:00,SystemResetWarning,0836.1,5.00,000.00,028.2,025.0,000.0,036.6,029.5,25.5,0001.9,0007.32,0012.47,0006.51
2023-08-23 14:28:00,SystemResetWarning,0836.1,5.00,000.00,028.2,025.3,000.0,036.6,029.6,25.6,0001.6,0007.34,0012.70,0006.50
2023-08-23 14:29:00,SystemResetWarning,0836.1,4.99,000.00,028.2,025.7,000.0,036.6,029.7,26.6,0001.7,0007.35,0012.56,0006.51
2023-08-23 14:30:00,SystemResetWarning,0836.1,5.00,000.00,028.2,026.0,000.0,036.6,029.8,26.2,0001.5,0007.37,0013.11,0006.51
2023-08-23 14:31:00,SystemResetWarning,0836.0,5.00,000.00,028.2,026.3,000.0,036.7,029.9,26.8,0001.8,0007.34,0013.58,0006.50
2023-08-23 14:32:00,SystemResetWarning,0836.1,5.01,000.00,028.3,026.6,000.0,036.7,029.9,26.5,0001.6,0007.34,0013.57,0006.47
2023-08-23 14:33:00,SystemResetWarning,0836.1,5.01,000.00,028.3,026.8,000.0,036.7,030.0,28.7,0001.6,0007.34,0013.59,0006.45
2023-08-23 14:34:00,SystemResetWarning,0836.1,5.00,000.00,028.3,026.9,000.0,036.7,030.0,28.8,0001.1,0007.32,0013.53,0006.43
2023-08-23 14:35:00,SystemResetWarning,0836.1,4.99,000.00,028.4,027.1,000.0,036.7,030.1,30.3,0001.2,0007.30,0013.52,0006.42
2023-08-23 14:36:00,SystemResetWarning,0836.1,4.98,000.00,028.4,027.1,000.0,036.7,030.1,31.1,0001.4,0007.28,0013.96,0006.41
2023-08-23 14:37:00,SystemResetWarning,0836.1,5.00,000.00,028.4,026.0,000.0,036.6,029.9,30.9,0001.6,0007.23,0013.99,0006.38
2023-08-23 14:38:00,SystemResetWarning,0836.1,5.00,000.00,028.3,024.5,000.0,036.5,029.6,31.6,0001.3,0007.19,0013.22,0006.36
2023-08-23 14:39:00,SystemResetWarning,0836.1,5.01,000.00,028.2,024.3,000.0,036.4,029.5,29.5,0001.4,0007.16,0012.72,0006.36
2023-08-23 14:40:00,SystemResetWarning,0836.1,5.00,000.00,028.1,024.6,000.0,036.5,029.4,28.5,0001.3,0007.15,0012.80,0006.34
2023-08-23 14:41:00,SystemResetWarning,0836.1,5.00,000.00,028.1,025.0,000.0,036.5,029.5,28.4,0001.1,0007.14,0012.35,0006.34
2023-08-23 14:42:00,SystemResetWarning,0836.1,5.00,000.00,028.1,025.4,000.0,036.6,029.6,28.0,0000.9,0007.14,0011.72,0006.33
2023-08-23 14:43:00,SystemResetWarning,0836.1,5.00,000.00,028.1,025.8,000.0,036.6,029.7,28.0,0000.7,0007.12,0011.65,0006.34
2023-08-23 14:44:00,SystemResetWarning,0836.1,5.01,000.00,028.1,026.1,000.0,036.6,029.8,26.3,0000.8,0007.12,0011.67,0006.33
2023-08-23 14:45:00,SystemResetWarning,0836.2,5.00,000.00,028.2,026.4,000.0,036.6,029.8,26.6,0001.2,0007.09,0011.60,0006.32
2023-08-23 14:46:00,SystemResetWarning,0836.1,5.00,000.00,028.2,026.6,000.0,036.6,029.9,27.0,0001.5,0007.05,0012.11,0006.31
2023-08-23 14:47:00,SystemResetWarning,0836.1,4.98,000.00,028.2,026.8,000.0,036.6,029.9,27.7,0001.2,0006.99,0011.56,0006.28
2023-08-23 14:48:00,SystemResetWarning,0836.1,5.00,000.00,028.3,027.0,000.0,036.7,030.0,27.4,0001.0,0006.97,0011.42,0006.28
2023-08-23 14:49:00,SystemResetWarning,0836.1,5.01,000.00,028.3,026.9,000.0,036.7,030.1,27.1,0001.1,0007.01,0011.59,0006.26
2023-08-23 14:50:00,SystemResetWarning,0836.1,5.00,000.00,028.3,025.6,000.0,036.5,029.8,26.3,0000.9,0007.01,0011.78,0006.24
2023-08-23 14:51:00,SystemResetWarning,0836.1,5.00,000.00,028.2,024.4,000.0,036.4,029.5,26.9,0000.9,0006.98,0011.97,0006.21
2023-08-23 14:52:00,SystemResetWarning,0836.1,5.01,000.00,028.1,024.5,000.0,036.4,029.5,28.1,0001.1,0006.95,0012.24,0006.19
2023-08-23 14:53:00,SystemResetWarning,0836.1,5.01,000.00,028.1,024.9,000.0,036.4,029.5,27.7,0001.4,0006.96,0012.29,0006.18
2023-08-23 14:54:00,SystemResetWarning,0836.1,5.00,000.00,028.1,025.3,000.0,036.5,029.6,28.6,0001.8,0006.98,0012.35,0006.17
2023-08-23 14:55:00,SystemResetWarning,0836.1,5.00,000.00,028.1,025.6,000.0,036.5,029.6,27.7,0001.7,0007.00,0012.76,0006.18
2023-08-23 14:56:00,SystemResetWarning,0836.1,5.00,000.00,028.1,026.0,000.0,036.5,029.7,29.1,0001.7,0007.09,0013.02,0006.20
2023-08-23 14:57:00,SystemResetWarning,0836.1,5.00,000.00,028.1,026.2,000.0,036.5,029.8,28.9,0001.4,0007.14,0012.78,0006.22
2023-08-23 14:58:00,SystemResetWarning,0836.1,4.99,000.00,028.2,026.5,000.0,036.6,029.8,28.8,0001.3,0007.24,0014.39,0006.25
2023-08-23 14:59:00,SystemResetWarning,0836.1,4.99,000.00,028.2,026.7,000.0,036.6,029.9,28.4,0001.1,0007.27,0014.81,0006.26
